Zurück zum Katalog

IRIDIUM 157

AktivKommunikationPO
NORAD 43251·PAYLOAD·🇺🇸 United States

Gestartet Mar 30, 2018 von Vandenberg Space Force Base

Loading…

Nächste Überflüge (nächste 24 Stunden)

TLE

AktuellSource: CelesTrak SupGP

Epoche: Sep 14, 2026, 20:33 UTC

1 43251C 18030C   26257.85659722  .00003791  00000+0  13555-2 0  2570
2 43251  86.3913 252.9111 0002338  90.1556   2.1242 14.34213400    14

Verfolge IRIDIUM 157 in Echtzeit mit AllMySat

Download on the App Store